Location: Gwatt
(46.7204°N, 7.6223°E)
Time: 08:27:09
(UTC+00:00)

Vanguard 2 - Pass Details

Date: 24 January 2021
Orbit: 552 x 2938 km, 32.9° (Epoch: 24 February)

Event Time Altitude Azimuth Distance (km) Brightness Sun altitude
Rises 16:42:22 0° 227° (SW) 2,710 12.0 -4.1°
Reaches altitude 10° 16:45:28 10° 198° (SSW) 1,886 10.2 -4.6°
Maximum altitude 16:47:34 14° 168° (SSE) 1,761 9.5 -4.9°
Drops below altitude 10° 16:49:53 10° 138° (SE) 2,135 9.6 -5.3°
Sets 16:53:52 0° 113° (ESE) 3,405 10.4 -5.9°
